Satellite-Ground Cal/Val Region Overpasses Predictions

Prediction of Satellite NPP Overpassing Cal/Val Region: PacNW

Region Location: (Latitude: 10.00, Longitude: 139.50) to (Latitude: 22.70, Longitude: 165.60).

Table of predicted overpasses for the next 14.0 days since TLE Epoch: 7/4/2022
Interval Starting Time Starting Location Ending Time Ending Location
1 07/04/2022 02:33:14 ( 10.46, 161.41) 07/04/2022 02:36:42 ( 22.67, 158.50)
2 07/04/2022 15:05:00 ( 22.65, 158.74) 07/04/2022 15:08:35 ( 10.03, 155.73)
3 07/05/2022 02:14:55 ( 12.94, 165.59) 07/05/2022 02:17:41 ( 22.69, 163.25)
4 07/05/2022 03:55:35 ( 10.01, 140.89) 07/05/2022 03:57:16 ( 15.94, 139.51)
5 07/05/2022 14:45:59 ( 22.68, 163.50) 07/05/2022 14:49:35 ( 10.01, 160.48)
6 07/06/2022 03:36:35 ( 10.03, 145.64) 07/06/2022 03:40:10 ( 22.65, 142.64)
7 07/06/2022 14:30:07 ( 11.57, 165.59) 07/06/2022 14:30:33 ( 10.04, 165.24)
8 07/06/2022 16:08:28 ( 22.66, 142.87) 07/06/2022 16:12:03 ( 10.04, 139.87)
9 07/07/2022 03:17:34 ( 10.05, 150.39) 07/07/2022 03:21:09 ( 22.67, 147.38)
10 07/07/2022 15:49:28 ( 22.64, 147.62) 07/07/2022 15:53:03 ( 10.02, 144.62)
11 07/08/2022 02:58:33 ( 10.01, 155.15) 07/08/2022 03:02:09 ( 22.69, 152.13)
12 07/08/2022 15:30:26 ( 22.68, 152.38) 07/08/2022 15:34:01 ( 10.06, 149.38)
13 07/09/2022 02:39:32 ( 10.03, 159.90) 07/09/2022 02:43:07 ( 22.66, 156.90)
14 07/09/2022 15:11:26 ( 22.66, 157.13) 07/09/2022 15:15:01 ( 10.04, 154.13)
15 07/10/2022 02:20:32 ( 10.06, 164.65) 07/10/2022 02:24:07 ( 22.68, 161.64)
16 07/10/2022 14:52:25 ( 22.69, 161.89) 07/10/2022 14:56:01 ( 10.01, 158.88)
17 07/11/2022 03:43:00 ( 10.02, 144.04) 07/11/2022 03:46:35 ( 22.64, 141.03)
18 07/11/2022 14:34:37 ( 18.39, 165.59) 07/11/2022 14:36:59 ( 10.05, 163.64)
19 07/11/2022 16:14:54 ( 22.67, 141.27) 07/11/2022 16:16:58 ( 15.39, 139.50)
20 07/12/2022 03:24:00 ( 10.05, 148.78) 07/12/2022 03:27:35 ( 22.67, 145.78)
21 07/12/2022 15:55:54 ( 22.65, 146.02) 07/12/2022 15:59:29 ( 10.03, 143.01)
22 07/13/2022 03:04:58 ( 10.01, 153.55) 07/13/2022 03:08:34 ( 22.69, 150.53)
23 07/13/2022 15:36:52 ( 22.68, 150.78) 07/13/2022 15:40:28 ( 10.00, 147.76)
24 07/14/2022 02:45:58 ( 10.04, 158.29) 07/14/2022 02:49:33 ( 22.66, 155.29)
25 07/14/2022 15:17:52 ( 22.66, 155.53) 07/14/2022 15:21:27 ( 10.04, 152.52)
26 07/15/2022 02:26:56 ( 10.00, 163.06) 07/15/2022 02:30:32 ( 22.68, 160.04)
27 07/15/2022 14:58:50 ( 22.69, 160.29) 07/15/2022 15:02:26 ( 10.01, 157.27)
28 07/16/2022 02:10:36 ( 19.42, 165.60) 07/16/2022 02:11:31 ( 22.65, 164.80)
29 07/16/2022 03:49:26 ( 10.03, 142.43) 07/16/2022 03:52:55 ( 22.30, 139.51)
30 07/16/2022 14:39:50 ( 22.67, 165.04) 07/16/2022 14:43:25 ( 10.05, 162.03)
31 07/16/2022 16:21:20 ( 22.66, 139.66) 07/16/2022 16:21:31 ( 22.02, 139.50)
32 07/17/2022 03:30:25 ( 10.05, 147.18) 07/17/2022 03:34:00 ( 22.68, 144.17)
